Regional Weather Roundup
Issued by NWS

Home | Current Version | Previous Version | Text Only | Print | Product List | Glossary On
Versions: 1 2 3 4 5 6 7 8 9 10 11 12 13 14 15 16 17 18 19 20 21 22 23 24 25 26 27 28 29 30 31 32 33 34 35 36 37 38 39 40 41 42 43 44 45 46 47 48 49 50
000
ASUS43 KLMK 231810
RWRKY
KENTUCKY REGIONAL WEATHER ROUNDUP
NATIONAL WEATHER SERVICE LOUISVILLE KY
200 PM EDT FRI JUN 23 2017

NOTE "FAIR" INDICATES FEW OR NO CLOUDS BELOW 12,000 FEET
WITH NO SIGNIFICANT WEATHER AND/OR OBSTRUCTIONS TO VISIBILITY.

KYZ001>023-026-027-061>063-070>075-231900-
WESTERN AND SOUTH CENTRAL KENTUCKY

CITY           SKY/WX    TMP DP  RH WIND       PRES   REMARKS
PADUCAH        CLOUDY    78  73  84 VRB3      29.64F
HENDERSON      LGT RAIN  74  73  97 E5        29.68F
OWENSBORO      LGT RAIN  75  74  96 S8        29.71F FOG
HOPKINSVILLE   LGT RAIN  75  73  94 SE15      29.64F FOG
BOWLING GREEN  RAIN      81  74  79 S16G23    29.72F
GLASGOW        CLOUDY    82  70  67 S12       29.74F
$$

KYZ024-025-028>034-038-045-046-053-231900-
NORTH CENTRAL KENTUCKY

CITY           SKY/WX    TMP DP  RH WIND       PRES   REMARKS
LOUISVILLE/SDF CLOUDY    84  71  65 S14G25    29.71F
LOUISVILLE/LOU CLOUDY    84  72  67 SW16G23   29.72F
FORT KNOX      CLOUDY    80  71  73 S10       29.72F
$$

KYZ035>037-039>044-047>052-055>060-089>105-231900-
NORTHEAST KENTUCKY

CITY           SKY/WX    TMP DP  RH WIND       PRES   REMARKS
LEXINGTON      CLOUDY    84  68  58 SW15G24   29.77F
COVINGTON      LGT RAIN  73  71  93 W22G37    29.76R FOG
FRANKFORT      CLOUDY    83  69  62 SW16G23   29.74F
$$

KYZ054-064>069-076>088-106>120-231900-
SOUTHEAST KENTUCKY

CITY           SKY/WX    TMP DP  RH WIND       PRES   REMARKS
JACKSON        CLOUDY    78  70  76 VRB7      29.85F
LONDON         CLOUDY    79  71  76 S10G20    29.85F
SOMERSET       HVY RAIN  77  70  78 S12G26    29.84F
MIDDLESBORO    PTSUNNY   82  70  67 S8G16     29.89F
MONTICELLO     LGT RAIN  76  74  93 S10G18    29.84F
$$




USA.gov is the U.S. government's official web portal to all federal, state and local government web resources and services.